Weather History for Eagle River, WI

Change the Weather History Date:

Sunday, November 28, 2010

  Actual Average Record
Temperature  
Mean Temperature 22 °F -  
Max Temperature 37 °F 33 °F 55 °F (2006)
Min Temperature 6 °F 16 °F 0 °F (1993)
Degree Days  
Heating Degree Days 44    
Moisture  
Dew Point 19 °F    
Average Humidity 84    
Maximum Humidity 100    
Minimum Humidity 60    
Precipitation  
Precipitation 0.05 in - - ()
Sea Level Pressure  
Sea Level Pressure 29.97 in    
Wind  
Wind Speed 3 mph (SSE)    
Max Wind Speed 10 mph    
Max Gust Speed 17 mph    
Visibility 10 miles    
Events      
Averages and records for this station are not official NWS values.
T = Trace of Precipitation, MM = Missing Value Source: NWS Daily Summary

Daily Weather History Graph

Daily Weather History Graph

Search for Another Location

Airport:

Trip Planner

Search our weather history database for the weather conditions in past years. The results will help you decide how hot, cold, wet, or windy it might be!

Date:

Astronomy

Nov. 28, 2010 Rise Set
Actual Time 7:14 AM CST 4:15 PM CST
Civil Twilight 6:41 AM CST 4:48 PM CST
Nautical Twilight 6:03 AM CST 5:25 PM CST
Astronomical Twilight 5:28 AM CST 6:01 PM CST
Moon No Moon Rise 12:09 PM CST (11/28)
Length of Visible Light 10h 07m
Length of Day
9h 00m
Waning Gibbous, 51% of the Moon is Illuminated
Nov 28
Waning Gibbous
Nov 28
Last Quarter
Dec 5
New
Dec 13
First Quarter
Dec 21
Full

Hourly Weather History & Observations

Time (CST) Temp. Windchill Dew Point Humidity Pressure Visibility Wind Dir Wind Speed Gust Speed Precip Events Conditions
12:13 AM 7.5 °F - 7.2 °F 98% 30.00 in 10.0 mi Calm Calm - N/A   Clear
12:33 AM 9.0 °F - 9.1 °F 100% 30.00 in 10.0 mi Calm Calm - N/A   Clear
12:53 AM 8.4 °F - 8.6 °F 100% 30.00 in 10.0 mi Calm Calm - N/A   Clear
1:13 AM 10.4 °F - 10.4 °F 100% 29.99 in 10.0 mi Calm Calm - N/A   Clear
1:33 AM 6.1 °F - 5.4 °F 97% 30.00 in 10.0 mi Calm Calm - N/A   Clear
1:53 AM - - - N/A% 30.01 in 10.0 mi Calm Calm - N/A   Clear
2:13 AM 8.4 °F - 8.4 °F 100% 30.01 in 10.0 mi Calm Calm - N/A   Clear
2:33 AM 9.9 °F - 9.9 °F 100% 30.00 in 10.0 mi Calm Calm - N/A   Clear
2:53 AM 7.2 °F - 7.2 °F 100% 30.01 in 10.0 mi Calm Calm - N/A   Clear
3:13 AM 7.7 °F - 7.7 °F 100% 30.01 in 10.0 mi Calm Calm - N/A   Clear
3:33 AM - - - N/A% 30.01 in 10.0 mi Calm Calm - N/A   Clear
3:53 AM 9.1 °F - 9.1 °F 100% 30.01 in 10.0 mi Calm Calm - N/A   Clear
4:13 AM - - - N/A% 30.01 in 10.0 mi Calm Calm - N/A   Clear
4:33 AM 6.8 °F - 6.8 °F 100% 30.00 in 10.0 mi Calm Calm - N/A   Clear
4:53 AM 8.8 °F - 9.0 °F 100% 29.99 in 10.0 mi Calm Calm - N/A   Clear
5:13 AM 8.2 °F - 8.4 °F 100% 30.00 in 10.0 mi Calm Calm - N/A   Clear
5:33 AM 10.9 °F - 10.9 °F 100% 29.99 in 10.0 mi Calm Calm - N/A   Clear
5:53 AM 13.5 °F - 13.6 °F 100% 29.99 in 10.0 mi Calm Calm - N/A   Clear
6:13 AM 14.0 °F - 14.2 °F 100% 29.99 in 10.0 mi Calm Calm - N/A   Clear
6:53 AM 15.1 °F 9.4 °F 15.3 °F 100% 30.00 in 10.0 mi SSE 3.5 mph - N/A   Clear
7:13 AM 15.8 °F 10.2 °F 15.8 °F 100% 30.00 in 10.0 mi SSE 3.5 mph - N/A   Clear
7:33 AM 16.7 °F 11.2 °F 16.7 °F 100% 30.01 in 10.0 mi South 3.5 mph - N/A   Clear
7:53 AM 18.0 °F 12.7 °F 18.1 °F 100% 30.01 in 10.0 mi South 3.5 mph - N/A   Clear
8:13 AM 19.2 °F - 19.4 °F 100% 30.01 in 10.0 mi Calm Calm - N/A   Clear
8:33 AM 20.7 °F 14.2 °F 20.8 °F 100% 30.01 in 10.0 mi South 4.6 mph - N/A   Clear
8:53 AM 22.3 °F 13.9 °F 22.3 °F 100% 30.01 in 10.0 mi South 6.9 mph - N/A   Clear
9:13 AM 24.6 °F 16.7 °F 23.9 °F 97% 30.01 in 10.0 mi South 6.9 mph - N/A   Clear
9:53 AM 29.1 °F 21.3 °F 23.7 °F 80% 30.01 in 10.0 mi South 8.1 mph 16.1 mph N/A   Clear
10:13 AM 29.8 °F 22.2 °F 23.5 °F 77% 30.00 in 10.0 mi South 8.1 mph - N/A   Clear
10:33 AM 30.2 °F 22.6 °F 23.5 °F 76% 29.99 in 10.0 mi South 8.1 mph 17.3 mph N/A   Clear
10:53 AM 30.6 °F 23.1 °F 23.9 °F 76% 29.99 in 10.0 mi South 8.1 mph - N/A   Clear
11:13 AM 32.0 °F 26.4 °F 24.8 °F 75% 29.98 in 10.0 mi South 5.8 mph - N/A   Clear
11:33 AM 32.7 °F 26.4 °F 25.3 °F 74% 29.97 in 10.0 mi South 6.9 mph - N/A   Clear
11:53 AM 33.8 °F 27.0 °F 25.5 °F 72% 29.96 in 10.0 mi South 8.1 mph - N/A   Clear
12:13 PM 34.3 °F 27.7 °F 25.3 °F 70% 29.95 in 10.0 mi South 8.1 mph - 0.01 in   Clear
12:33 PM 35.2 °F 30.3 °F 25.5 °F 68% 29.95 in 10.0 mi South 5.8 mph - 0.02 in   Clear
12:53 PM 36.5 °F 31.0 °F 25.7 °F 65% 29.94 in 10.0 mi South 6.9 mph - 0.03 in   Clear
1:13 PM 37.8 °F 31.8 °F 24.8 °F 60% 29.94 in 10.0 mi South 8.1 mph - 0.01 in   Clear
1:33 PM 36.5 °F 31.0 °F 25.0 °F 63% 29.93 in 10.0 mi SSE 6.9 mph - 0.02 in   Clear
1:53 PM 35.8 °F 28.3 °F 24.8 °F 64% 29.93 in 10.0 mi South 10.4 mph 16.1 mph 0.02 in   Clear
2:13 PM 36.5 °F 30.3 °F 25.3 °F 64% 29.92 in 10.0 mi SSE 8.1 mph - N/A   Clear
2:33 PM 36.5 °F 31.8 °F 25.5 °F 64% 29.91 in 10.0 mi SSE 5.8 mph - N/A   Clear
2:53 PM 37.0 °F 32.4 °F 26.1 °F 65% 29.92 in 10.0 mi South 5.8 mph - N/A   Clear
3:13 PM 36.5 °F 31.8 °F 25.9 °F 65% 29.91 in 10.0 mi SSE 5.8 mph - N/A   Clear
3:33 PM 36.0 °F 30.3 °F 26.1 °F 67% 29.92 in 10.0 mi SSE 6.9 mph - N/A   Clear
3:53 PM 35.6 °F 29.2 °F 25.7 °F 67% 29.91 in 10.0 mi SSE 8.1 mph - N/A   Clear
4:13 PM 35.1 °F 28.6 °F 25.7 °F 69% 29.91 in 10.0 mi SSE 8.1 mph - N/A   Clear
4:33 PM 34.5 °F 27.9 °F 25.5 °F 70% 29.91 in 10.0 mi SE 8.1 mph - N/A   Clear
4:53 PM 33.3 °F 27.1 °F 25.7 °F 74% 29.90 in 10.0 mi SE 6.9 mph - N/A   Clear
5:13 PM 32.9 °F 25.9 °F 25.7 °F 75% 29.90 in 10.0 mi SE 8.1 mph - N/A   Clear
5:33 PM 32.9 °F 25.9 °F 25.9 °F 75% 29.89 in 10.0 mi SE 8.1 mph - N/A   Clear
5:53 PM 32.5 °F 24.2 °F 26.2 °F 78% 29.90 in 10.0 mi SSE 10.4 mph - N/A   Clear
6:13 PM 32.2 °F 25.0 °F 26.4 °F 79% 29.89 in 10.0 mi SSE 8.1 mph 16.1 mph N/A   Clear
6:33 PM 32.0 °F 24.8 °F 26.4 °F 80% 29.89 in 10.0 mi SSE 8.1 mph - N/A   Clear
6:53 PM 32.2 °F 25.8 °F 26.4 °F 79% 29.89 in 10.0 mi SSE 6.9 mph - N/A   Clear
7:13 PM 32.4 °F 26.9 °F 26.4 °F 79% 29.89 in 10.0 mi SSE 5.8 mph - N/A   Clear
7:33 PM 32.4 °F 26.9 °F 26.6 °F 79% 29.89 in 10.0 mi SSE 5.8 mph - N/A   Clear
7:53 PM 32.4 °F 26.0 °F 26.6 °F 79% 29.89 in 10.0 mi SSE 6.9 mph - N/A   Clear
8:13 PM 32.9 °F 27.5 °F 27.3 °F 80% 29.88 in 10.0 mi SSE 5.8 mph 18.4 mph N/A   Clear
8:33 PM 32.9 °F 25.9 °F 27.9 °F 82% 29.89 in 10.0 mi SSE 8.1 mph - N/A   Clear
8:53 PM 32.9 °F 25.3 °F 28.2 °F 83% 29.90 in 10.0 mi SSE 9.2 mph - N/A   Clear
9:13 PM 32.9 °F 24.7 °F 28.4 °F 84% 29.90 in 10.0 mi SSE 10.4 mph - N/A   Clear
9:33 PM 32.5 °F 25.5 °F 28.8 °F 86% 29.91 in 10.0 mi South 8.1 mph - N/A   Clear
9:53 PM 32.2 °F 26.7 °F 28.8 °F 87% 29.91 in 7.0 mi SSE 5.8 mph - N/A   Clear
10:13 PM 32.5 °F 26.2 °F 29.1 °F 87% 29.92 in 7.0 mi SSE 6.9 mph - N/A   Clear
10:33 PM 32.4 °F 25.3 °F 29.3 °F 88% 29.91 in 7.0 mi SSE 8.1 mph - N/A   Clear
10:53 PM 33.1 °F 26.1 °F 29.3 °F 86% 29.92 in 10.0 mi SSE 8.1 mph - N/A   Clear
11:13 PM 33.4 °F 26.6 °F 29.3 °F 85% 29.93 in 10.0 mi SSE 8.1 mph 17.3 mph N/A   Clear
11:33 PM 33.8 °F 27.0 °F 29.3 °F 84% 29.93 in 10.0 mi South 8.1 mph - N/A   Clear
11:53 PM 33.3 °F 25.7 °F 29.3 °F 85% 29.93 in 10.0 mi South 9.2 mph - N/A   Clear